FW9412 Weather Reports


time (UTC)temp
C
wind
direction
speed
KPH
gust
KPH
rain 1hr
cm
rain 24hr
cm
rain mn
cm
humidity
%
barometer
mb
20260507031055 6 199 4.8 4.8 0.00 1.60 1.60 95 1011.1
20260507030551 6 172 1.6 1.6 0.00 1.60 1.60 95 1011.0
20260507030050 6 211 4.8 4.8 0.00 1.60 1.60 95 1011.0
20260507025546 6 181 1.6 3.2 0.00 1.60 1.60 95 1010.7
20260507025044 6 169 0.0 0.0 0.00 1.60 1.60 95 1010.9
20260507024542 6 176 1.6 1.6 0.00 1.60 1.60 95 1010.9
20260507024038 6 174 1.6 1.6 0.00 1.60 1.60 95 1011.1
20260507023534 6 167 0.0 1.6 0.00 1.60 1.60 95 1011.1
20260507023032 6 165 0.0 0.0 0.00 1.60 1.60 95 1011.0
20260507022528 6 188 3.2 3.2 0.00 1.60 1.60 95 1011.1
20260507022023 6 172 0.0 0.0 0.00 1.60 1.60 95 1011.2
20260507021519 6 172 0.0 0.0 0.00 1.60 1.60 95 1011.2
20260507021016 6 171 0.0 0.0 0.00 1.60 1.60 95 1011.1
20260507020514 6 167 0.0 0.0 0.00 1.60 1.60 95 1011.2
20260507020010 6 163 0.0 0.0 0.00 1.60 1.60 95 1011.0
20260507015509 6 168 0.0 0.0 0.00 1.60 1.60 95 1011.1
20260507015006 6 171 0.0 1.6 0.00 1.60 1.60 95 1011.2
20260507014502 6 169 0.0 1.6 0.00 1.60 1.60 95 1011.2
20260507013958 6 163 0.0 0.0 0.00 1.60 1.60 95 1010.9
20260507013455 6 163 0.0 0.0 0.00 1.60 1.60 95 1011.3
20260507012952 6 170 0.0 0.0 0.00 1.60 1.60 95 1011.3
20260507012449 6 162 0.0 0.0 0.00 1.60 1.60 95 1011.0
20260507011945 5 171 0.0 0.0 0.00 1.60 1.60 95 1010.9
20260507011443 5 161 0.0 0.0 0.00 1.60 1.60 95 1010.9
20260507010938 5 159 0.0 0.0 0.00 1.60 1.60 95 1011.0
20260507010433 6 159 0.0 0.0 0.00 1.60 1.60 95 1010.8
20260507005930 5 160 0.0 0.0 0.00 1.60 1.60 95 1010.9
20260507005427 5 160 0.0 0.0 0.00 1.60 1.60 95 1010.9
20260507004923 5 166 0.0 0.0 0.00 1.60 1.60 95 1010.8
20260507004420 5 161 0.0 0.0 0.00 1.60 1.60 95 1010.5
20260507003918 5 161 0.0 0.0 0.00 1.60 1.60 95 1010.5
20260507003413 5 162 0.0 0.0 0.00 1.60 1.60 95 1010.5
20260507002908 5 164 0.0 0.0 0.00 1.60 1.60 95 1010.8
20260507002405 6 166 0.0 0.0 0.00 1.60 1.60 95 1010.7
20260507001902 6 162 0.0 0.0 0.00 1.60 1.60 95 1010.4
20260507001359 6 168 0.0 0.0 0.00 1.60 1.60 95 1010.5
20260507000856 6 174 1.6 1.6 0.00 1.60 1.60 95 1010.2
20260507000351 6 161 0.0 0.0 0.00 1.60 1.60 95 1010.5
20260506235847 6 163 0.0 0.0 0.00 1.60 1.60 95 1010.4
20260506235345 6 172 0.0 1.6 0.00 1.60 1.60 95 1010.2
20260506234840 6 186 1.6 1.6 0.00 1.60 1.60 95 1010.0
20260506234338 6 175 0.0 0.0 0.00 1.60 1.60 95 1010.1
20260506233836 6 188 1.6 1.6 0.00 1.60 1.60 95 1010.3
20260506233331 6 172 0.0 1.6 0.00 1.60 1.60 95 1010.0
20260506232829 6 173 0.0 0.0 0.00 1.60 1.60 95 1009.8
20260506232324 6 172 0.0 0.0 0.00 1.60 1.60 95 1010.0
20260506231821 6 169 0.0 1.6 0.00 1.60 1.60 95 1009.9
20260506231319 6 180 1.6 1.6 0.00 1.60 1.60 95 1009.7
20260506230816 6 160 0.0 0.0 0.00 1.60 1.60 95 1009.2
20260506230313 6 159 0.0 0.0 0.00 1.60 1.60 96 1009.4
20260506225809 6 158 0.0 0.0 0.00 1.60 1.60 96 1009.2
20260506225306 6 159 0.0 0.0 0.00 1.60 1.60 96 1009.3
20260506224803 6 159 0.0 0.0 0.00 1.60 1.60 96 1009.5
20260506224300 6 159 0.0 0.0 0.00 1.60 1.60 96 1009.3
20260506223756 6 164 0.0 0.0 0.00 1.60 1.60 96 1009.6
20260506223251 6 168 0.0 0.0 0.00 1.60 1.60 96 1009.5
20260506222749 6 157 0.0 0.0 0.00 1.60 1.60 96 1009.7
20260506222244 6 161 0.0 0.0 0.00 1.60 1.60 96 1009.7
20260506221742 6 159 0.0 0.0 0.00 1.60 1.60 96 1009.6
20260506221240 5 170 0.0 0.0 0.00 1.60 1.60 97 1009.7
20260506220737 6 181 0.0 1.6 0.00 1.60 1.60 97 1009.9
20260506220232 6 183 1.6 1.6 0.00 1.60 1.60 97 1010.0
20260506215729 6 186 1.6 1.6 0.00 1.60 1.60 97 1009.6
20260506215224 6 177 1.6 1.6 0.00 1.60 1.60 97 1009.7
20260506214721 6 178 1.6 1.6 0.00 1.60 1.60 97 1009.9
20260506214218 5 176 1.6 1.6 0.00 1.60 1.60 97 1009.7
20260506213717 5 192 1.6 1.6 0.00 1.60 1.60 97 1009.5
20260506213214 6 189 1.6 1.6 0.00 1.60 1.60 97 1009.3
20260506212711 6 166 0.0 0.0 0.00 1.60 1.60 97 1009.5
20260506212206 6 176 0.0 1.6 0.00 1.60 1.60 97 1009.4
20260506211702 5 192 1.6 1.6 0.00 1.60 1.60 97 1009.5
20260506211158 6 188 1.6 1.6 0.00 1.60 1.60 97 1009.3
20260506210655 6 169 0.0 0.0 0.00 1.60 1.60 97 1009.4
20260506210152 5 157 1.6 1.6 0.00 1.60 1.60 97 1009.4
20260506205649 5 190 1.6 1.6 0.00 1.60 1.60 97 1009.6
20260506205144 5 248 3.2 3.2 0.00 1.60 1.60 97 1009.4
20260506204642 5 182 1.6 1.6 0.00 1.60 1.60 97 1009.3
20260506204138 5 168 1.6 1.6 0.00 1.60 1.60 97 1009.2
20260506203637 5 237 3.2 3.2 0.00 1.60 1.60 97 1009.3
20260506203133 5 190 3.2 3.2 0.00 1.60 1.60 97 1009.1
20260506202632 6 198 3.2 3.2 0.00 1.60 1.60 97 1009.1
20260506202127 6 186 1.6 1.6 0.00 1.60 1.60 97 1009.2
20260506201625 6 198 3.2 3.2 0.00 1.60 1.60 97 1008.9
20260506201121 5 188 1.6 1.6 0.00 1.60 1.60 97 1008.9
20260506200618 5 214 4.8 4.8 0.00 1.60 1.60 97 1008.8
20260506200114 6 164 1.6 3.2 0.00 1.60 1.60 97 1008.7
20260506195611 6 141 0.0 0.0 0.00 1.60 1.60 97 1008.7
20260506195107 5 161 0.0 0.0 0.00 1.60 1.60 97 1008.8
20260506194605 6 200 3.2 3.2 0.00 1.60 1.60 97 1009.0
20260506194101 6 249 3.2 3.2 0.00 1.60 1.60 97 1008.9
20260506193559 6 193 1.6 3.2 0.00 1.60 1.60 97 1009.0
20260506193056 6 161 3.2 3.2 0.00 1.60 1.60 97 1008.9
20260506192553 6 199 3.2 3.2 0.00 1.60 1.60 97 1008.9
20260506192049 6 239 3.2 3.2 0.00 1.60 1.60 97 1008.7
20260506191545 6 194 1.6 3.2 0.00 1.60 1.60 97 1008.9
20260506191041 6 236 4.8 4.8 0.18 1.60 1.60 97 1008.6
20260506190539 6 199 1.6 3.2 0.18 1.60 1.60 97 1008.7
20260506190036 6 142 0.0 1.6 0.00 1.57 1.57 97 1008.5
20260506185533 6 223 3.2 3.2 0.00 1.57 1.57 97 1008.6
20260506185029 6 151 0.0 1.6 0.00 1.57 1.57 97 1008.5
20260506184527 6 185 3.2 3.2 0.00 1.57 1.57 97 1008.6
20260506184024 6 186 4.8 4.8 0.00 1.57 1.57 97 1008.8
20260506183520 6 180 4.8 4.8 0.00 1.57 1.57 97 1008.5
20260506183017 6 209 1.6 1.6 0.00 1.57 1.57 97 1008.3
20260506182514 6 193 4.8 4.8 0.00 1.57 1.57 97 1008.3
20260506182011 6 201 1.6 3.2 0.00 1.57 1.57 97 1008.2
20260506181509 6 211 4.8 4.8 0.00 1.57 1.57 97 1008.4
20260506181006 6 224 4.8 4.8 0.00 1.57 1.57 97 1008.1
20260506180502 6 204 3.2 3.2 0.00 1.57 1.57 97 1008.3
20260506175959 6 180 3.2 3.2 0.00 1.57 1.57 97 1008.0
20260506175455 6 205 3.2 3.2 0.00 1.57 1.57 97 1008.0
20260506174952 6 204 3.2 3.2 0.00 1.57 1.57 97 1007.9
20260506174450 6 191 1.6 3.2 0.00 1.57 1.57 97 1007.7
20260506173946 6 183 1.6 1.6 0.00 1.57 1.57 97 1007.6
20260506173444 6 174 0.0 1.6 0.00 1.57 1.57 97 1007.7
20260506172940 6 164 1.6 3.2 0.00 1.57 1.57 97 1007.9
20260506172438 6 189 1.6 1.6 0.00 1.57 1.57 97 1007.8
20260506171934 6 163 0.0 0.0 0.00 1.57 1.57 97 1007.6
20260506171432 6 172 0.0 1.6 0.00 1.57 1.57 97 1007.7
20260506170930 6 181 1.6 1.6 0.13 1.57 1.57 97 1007.5
20260506170425 6 182 0.0 1.6 0.13 1.57 1.57 97 1007.7
20260506165919 6 175 0.0 1.6 0.00 1.55 1.55 97 1007.6
20260506165417 6 164 0.0 0.0 0.00 1.55 1.55 97 1007.5
20260506164913 6 155 0.0 0.0 0.00 1.55 1.55 97 1007.5
20260506164409 6 147 0.0 0.0 0.00 1.55 1.55 97 1007.4
20260506163908 6 209 1.6 1.6 0.00 1.55 1.55 97 1007.6
20260506163401 6 156 0.0 0.0 0.00 1.55 1.55 97 1007.8
20260506162857 6 148 0.0 0.0 0.00 1.55 1.55 97 1007.8
20260506162355 6 146 1.6 1.6 0.00 1.55 1.55 97 1007.5
20260506161852 6 174 0.0 1.6 0.00 1.55 1.55 97 1007.7
20260506161350 6 177 0.0 0.0 0.18 1.55 1.55 97 1007.6
20260506160847 6 144 0.0 0.0 0.18 1.55 1.55 97 1007.8
20260506160344 6 134 0.0 1.6 0.13 1.52 1.52 97 1007.9
20260506155842 6 168 0.0 0.0 0.13 1.52 1.52 97 1008.0
20260506155339 6 127 1.6 1.6 0.18 1.50 1.50 97 1007.9
20260506153456 6 142 0.0 0.0 0.00 1.45 1.45 97 1008.2
20260506152954 6 145 0.0 0.0 0.00 1.45 1.45 97 1007.9
20260506152450 6 158 0.0 0.0 0.18 1.45 1.45 97 1007.9
20260506151949 6 140 0.0 0.0 0.18 1.45 1.45 97 1007.7
20260506151446 6 147 0.0 0.0 0.00 1.42 1.42 97 1008.0
20260506150943 6 129 0.0 1.6 0.00 1.42 1.42 97 1007.6
20260506150439 5 138 0.0 0.0 0.00 1.42 1.42 97 1007.8
20260506145936 6 138 0.0 0.0 0.00 1.42 1.42 97 1007.5
20260506145432 6 146 0.0 0.0 0.00 1.42 1.42 97 1007.3
20260506144930 6 148 0.0 0.0 0.13 1.42 1.42 97 1007.5
20260506144427 6 133 0.0 1.6 0.13 1.42 1.42 97 1007.4
20260506143925 6 128 0.0 0.0 0.13 1.42 1.42 97 1007.1
20260506143422 6 147 0.0 0.0 0.00 1.40 1.40 97 1007.1
20260506142920 5 123 1.6 1.6 0.18 1.40 1.40 97 1007.5
20260506142418 6 132 0.0 0.0 0.18 1.40 1.40 97 1007.3
20260506141915 5 150 0.0 0.0 0.13 1.37 1.37 97 1007.4
20260506141413 5 146 0.0 0.0 0.18 1.35 1.35 97 1007.6
20260506140911 5 146 0.0 0.0 0.18 1.35 1.35 97 1007.1
20260506140408 5 132 0.0 1.6 0.00 1.32 1.32 97 1007.6
20260506135905 5 140 0.0 1.6 0.13 1.32 1.32 97 1007.4
20260506135402 5 140 0.0 0.0 0.13 1.32 1.32 97 1007.6
20260506134858 5 137 0.0 0.0 0.00 1.30 1.30 97 1007.4
20260506134354 5 158 1.6 1.6 0.18 1.30 1.30 97 1007.6
20260506133851 5 148 0.0 0.0 0.36 1.30 1.30 97 1007.7
20260506133348 5 118 0.0 1.6 0.30 1.27 1.27 97 1007.8
20260506132844 5 129 0.0 0.0 0.13 1.24 1.24 97 1007.7
20260506132342 5 145 0.0 0.0 0.18 1.22 1.22 97 1007.9
20260506131840 5 45 1.6 1.6 0.30 1.22 1.22 97 1007.7
20260506131336 5 129 1.6 1.6 0.43 1.19 1.19 97 1007.9
20260506130834 5 143 0.0 0.0 0.48 1.17 1.17 97 1007.5
20260506130330 5 140 1.6 1.6 0.43 1.14 1.14 97 1007.6
20260506125828 5 65 1.6 3.2 0.43 1.09 1.09 97 1007.7
20260506125326 5 122 0.0 1.6 0.43 1.04 1.04 97 1007.9
20260506124824 5 99 1.6 1.6 0.66 1.02 1.02 97 1007.7
20260506124320 5 142 1.6 1.6 0.48 0.97 0.97 97 1007.7
20260506123818 5 144 0.0 1.6 0.30 0.91 0.91 97 1007.8
20260506123316 5 151 0.0 0.0 0.30 0.89 0.89 97 1007.7
20260506122813 5 130 1.6 3.2 0.30 0.84 0.84 97 1007.6
20260506122310 5 140 0.0 0.0 0.30 0.84 0.84 97 1007.4
20260506121808 5 139 0.0 0.0 0.30 0.81 0.81 97 1007.6
20260506121305 5 152 0.0 0.0 0.30 0.79 0.79 97 1007.6
20260506120802 5 151 0.0 0.0 0.30 0.76 0.76 97 1007.3
20260506120300 5 91 1.6 3.2 0.18 0.74 0.74 97 1007.6
20260506115757 5 117 3.2 3.2 0.13 0.71 0.71 97 1007.5
20260506115255 5 35 3.2 3.2 0.13 0.71 0.71 97 1007.4
20260506114753 5 93 3.2 3.2 0.00 0.69 0.69 97 1007.4
20260506114250 5 98 0.0 1.6 0.00 0.69 0.69 97 1007.7
20260506113749 5 141 1.6 1.6 0.18 0.69 0.69 97 1007.6
20260506113246 5 138 1.6 1.6 0.18 0.69 0.69 97 1007.6
20260506112742 5 140 0.0 1.6 0.13 0.66 0.66 97 1007.6
20260506112240 5 30 3.2 3.2 0.13 0.66 0.66 97 1007.7
20260506111737 5 131 1.6 1.6 0.18 0.64 0.64 97 1007.9
20260506111235 5 86 1.6 1.6 0.36 0.64 0.64 97 1008.0
20260506110732 5 112 1.6 1.6 0.30 0.61 0.61 97 1008.0
20260506110230 5 122 1.6 3.2 0.30 0.58 0.58 97 1008.2
20260506105726 5 143 0.0 0.0 0.48 0.56 0.56 97 1007.8
20260506105223 5 151 0.0 1.6 0.30 0.53 0.53 97 1008.2
20260506104721 5 141 0.0 0.0 0.30 0.51 0.51 97 1007.6
20260506104218 5 147 0.0 0.0 0.13 0.48 0.48 97 1007.9
20260506103715 5 149 0.0 0.0 0.18 0.46 0.46 97 1007.6
20260506103212 5 145 0.0 0.0 0.18 0.46 0.46 97 1007.5
20260506102710 5 135 0.0 1.6 0.13 0.43 0.43 97 1007.8
20260506102208 5 148 0.0 0.0 0.13 0.43 0.43 97 1007.7
20260506101704 5 146 0.0 0.0 0.00 0.41 0.41 97 1007.5
20260506101201 5 146 0.0 0.0 0.00 0.41 0.41 97 1007.5
20260506100659 5 147 0.0 0.0 0.00 0.41 0.41 97 1007.4
20260506100157 5 144 0.0 0.0 0.00 0.41 0.41 97 1007.5
20260506095655 5 147 0.0 0.0 0.18 0.41 0.41 97 1007.6
20260506095151 5 146 0.0 0.0 0.30 0.41 0.41 97 1007.4
20260506094649 5 142 0.0 0.0 0.30 0.38 0.38 97 1007.6
20260506094147 5 145 0.0 0.0 0.18 0.36 0.36 97 1007.5
20260506093645 5 127 0.0 1.6 0.36 0.36 0.36 97 1007.8
20260506093142 5 145 0.0 0.0 0.18 0.33 0.33 97 1007.7
20260506092640 5 143 0.0 0.0 0.13 0.30 0.30 97 1007.8
20260506092137 5 147 0.0 0.0 0.13 0.30 0.30 97 1008.1
20260506091635 5 115 0.0 0.0 0.00 0.28 0.28 96 1008.1
20260506091132 5 139 0.0 0.0 0.00 0.28 0.28 97 1008.2
20260506090630 5 125 1.6 1.6 0.18 0.28 0.28 97 1008.5
20260506090126 6 150 1.6 1.6 0.18 0.28 0.28 97 1008.1
20260506085623 5 172 3.2 3.2 0.13 0.25 0.25 96 1008.6
20260506085119 5 79 3.2 3.2 0.13 0.25 0.25 96 1008.4
20260506084616 5 127 0.0 1.6 0.18 0.23 0.23 96 1008.1
20260506084112 6 109 0.0 1.6 0.30 0.23 0.23 96 1008.5
20260506083610 6 116 1.6 3.2 0.13 0.20 0.20 96 1008.3
20260506083107 6 77 3.2 4.8 0.18 0.18 0.18 96 1008.1
20260506082603 6 37 3.2 4.8 0.18 0.18 0.18 96 1007.8
20260506082059 6 105 1.6 3.2 0.13 0.15 0.15 96 1008.4
20260506081558 7 175 1.6 1.6 0.30 0.15 0.15 96 1008.0
20260506081055 7 130 0.0 1.6 0.30 0.13 0.13 97 1008.1
20260506080552 7 92 3.2 4.8 0.13 0.10 0.10 97 1008.2
20260506073033 7 122 1.6 1.6 0.00 0.03 0.03 97 1007.9
20260506072530 7 148 0.0 0.0 0.00 0.03 0.03 96 1007.7
20260506072027 7 145 0.0 0.0 0.00 0.03 0.03 96 1007.8
20260506071525 7 134 0.0 0.0 0.00 0.03 0.03 96 1007.7
20260506071022 7 148 0.0 0.0 0.00 0.03 0.03 96 1007.7
20260506070520 7 149 0.0 0.0 0.00 0.03 0.03 96 1007.8
20260506062457 8 142 0.0 0.0 0.00 0.03 0.03 96 1008.6
20260506061953 8 145 0.0 0.0 0.00 0.03 0.03 96 1008.7
20260506061449 8 145 0.0 0.0 0.00 0.03 0.03 96 1008.6
20260506060947 8 146 0.0 0.0 0.00 0.03 0.03 96 1008.6
20260506060445 8 146 0.0 0.0 0.00 0.03 0.03 96 1008.7
20260506050914 8 145 0.0 0.0 0.00 0.00 0.00 96 1009.4
20260506050412 8 168 0.0 0.0 0.00 0.00 0.00 96 1009.4
20260506044902 8 140 0.0 0.0 0.00 0.00 0.00 96 1009.8
20260506044400 8 156 0.0 0.0 0.00 0.00 0.00 96 1009.5
20260506043857 7 143 0.0 0.0 0.00 0.00 0.00 96 1009.4
20260506043354 7 147 0.0 0.0 0.00 0.00 0.00 96 1009.4
20260506042852 7 147 0.0 0.0 0.00 0.00 0.00 96 1009.5
20260506042351 7 142 0.0 0.0 0.00 0.00 0.00 96 1009.7
20260506041849 7 150 0.0 0.0 0.00 0.00 0.00 96 1009.4
20260506041346 7 150 0.0 0.0 0.00 0.00 0.00 96 1009.7
20260506040843 7 149 0.0 0.0 0.00 0.00 0.00 95 1009.6
20260506040341 7 149 0.0 0.0 0.00 0.00 0.00 95 1009.7
20260506035836 7 149 0.0 0.0 0.00 0.74 0.74 95 1009.4
20260506035334 7 149 0.0 0.0 0.00 0.74 0.74 95 1009.5
20260506034831 7 149 0.0 0.0 0.00 0.74 0.74 95 1009.7
20260506034328 7 149 0.0 0.0 0.18 0.74 0.74 95 1009.6
20260506033825 7 145 0.0 0.0 0.48 0.74 0.74 95 1009.4
20260506033322 7 150 0.0 0.0 0.43 0.71 0.71 95 1010.1
20260506032819 7 158 0.0 0.0 0.43 0.66 0.66 95 1010.0
20260506032316 7 154 0.0 0.0 0.48 0.64 0.64 95 1009.9
20260506031813 7 146 0.0 0.0 0.30 0.58 0.58 95 1010.3